| time (UTC) | temp C | wind direction | speed KPH | gust KPH | rain 1hr cm | rain 24hr cm | rain mn cm | humidity % | barometer mb |
| 20260509094628 | 15 | 0.0 | 1.6 | 0.36 | 0.66 | 0.66 | 91 | ||
| 20260509093652 | 15 | 0.0 | 0.0 | 0.38 | 0.61 | 0.61 | 90 | ||
| 20260509092648 | 15 | 0.0 | 1.6 | 0.43 | 0.53 | 0.53 | 90 | ||
| 20260509091651 | 15 | 0.0 | 1.6 | 0.43 | 0.48 | 0.48 | 89 | ||
| 20260509090628 | 15 | 0.0 | 1.6 | 0.38 | 0.43 | 0.43 | 88 | ||
| 20260509085740 | 16 | 0.0 | 1.6 | 0.33 | 0.33 | 0.33 | 86 | ||
| 20260509084628 | 16 | 0.0 | 0.0 | 0.30 | 0.30 | 0.30 | 85 | ||
| 20260509083652 | 16 | 0.0 | 0.0 | 0.20 | 0.20 | 0.20 | 84 | ||
| 20260509082628 | 16 | 0.0 | 0.0 | 0.13 | 0.13 | 0.13 | 83 | ||
| 20260509081712 | 16 | 0.0 | 1.6 | 0.05 | 0.05 | 0.05 | 82 | ||
| 20260509080628 | 16 | 0.0 | 0.0 | 0.03 | 0.03 | 0.03 | 82 | ||
| 20260509075652 | 16 | 0.0 | 1.6 | 0.00 | 0.00 | 0.00 | 81 | ||
| 20260509074627 | 16 | 0.0 | 0.0 | 0.00 | 0.00 | 0.00 | 81 | ||
| 20260509073652 | 16 | 0.0 | 0.0 | 0.00 | 0.00 | 0.00 | 80 | ||
| 20260509072627 | 16 | 0.0 | 0.0 | 0.00 | 0.00 | 0.00 | 80 | ||
| 20260509071652 | 17 | 0.0 | 0.0 | 0.00 | 0.00 | 0.00 | 80 | ||
| 20260509070628 | 17 | 0.0 | 0.0 | 0.00 | 0.00 | 0.00 | 80 | ||
| 20260509065712 | 17 | 0.0 | 0.0 | 0.00 | 0.00 | 0.00 | 80 | ||
| 20260509064628 | 17 | 0.0 | 0.0 | 0.00 | 0.00 | 0.00 | 80 | ||
| 20260509063652 | 17 | 0.0 | 1.6 | 0.00 | 0.00 | 0.00 | 80 | ||
| 20260509062628 | 17 | 0.0 | 1.6 | 0.00 | 0.00 | 0.00 | 80 | ||
| 20260509061711 | 16 | 0.0 | 3.2 | 0.00 | 0.00 | 0.00 | 81 | ||
| 20260509060628 | 16 | 180 | 1.6 | 3.2 | 0.00 | 0.00 | 0.00 | 81 | |
| 20260509055652 | 16 | 0.0 | 1.6 | 0.00 | 0.00 | 0.00 | 81 | ||
| 20260509054628 | 16 | 0.0 | 0.0 | 0.00 | 0.00 | 0.00 | 81 | ||
| 20260509053652 | 16 | 0.0 | 0.0 | 0.00 | 0.00 | 0.00 | 81 | ||
| 20260509052628 | 16 | 0.0 | 1.6 | 0.00 | 0.00 | 0.00 | 81 | ||
| 20260509051652 | 16 | 0.0 | 3.2 | 0.00 | 0.00 | 0.00 | 81 | ||
| 20260509050708 | 16 | 180 | 1.6 | 3.2 | 0.00 | 0.00 | 0.00 | 81 | |
| 20260509045428 | 16 | 0.0 | 0.0 | 0.00 | 0.00 | 0.00 | 81 | ||
| 20260509044452 | 16 | 0.0 | 1.6 | 0.00 | 0.00 | 0.00 | 82 | ||
| 20260509043428 | 16 | 0.0 | 0.0 | 0.00 | 0.00 | 0.00 | 82 | ||
| 20260509042512 | 16 | 0.0 | 1.6 | 0.00 | 0.00 | 0.00 | 81 | ||
| 20260509041429 | 16 | 0.0 | 0.0 | 0.00 | 0.00 | 0.00 | 80 | ||
| 20260509040452 | 17 | 0.0 | 1.6 | 0.00 | 0.00 | 0.00 | 80 | ||
| 20260509035252 | 17 | 0.0 | 1.6 | 0.00 | 0.00 | 0.00 | 78 | ||
| 20260509034228 | 17 | 0.0 | 1.6 | 0.00 | 0.00 | 0.00 | 78 | ||
| 20260509033252 | 17 | 0.0 | 1.6 | 0.00 | 0.00 | 0.00 | 77 | ||
| 20260509032228 | 17 | 0.0 | 1.6 | 0.00 | 0.00 | 0.00 | 77 | ||
| 20260509031252 | 17 | 0.0 | 0.0 | 0.00 | 0.00 | 0.00 | 76 | ||
| 20260509030228 | 17 | 0.0 | 1.6 | 0.00 | 0.00 | 0.00 | 76 | ||
| 20260509025828 | 17 | 0.0 | 0.0 | 0.00 | 0.00 | 0.00 | 75 | ||
| 20260509024912 | 17 | 0.0 | 1.6 | 0.00 | 0.00 | 0.00 | 75 | ||
| 20260509023828 | 17 | 0.0 | 1.6 | 0.00 | 0.00 | 0.00 | 75 | ||
| 20260509022852 | 17 | 0.0 | 1.6 | 0.00 | 0.00 | 0.00 | 76 | ||
| 20260509021828 | 17 | 0.0 | 1.6 | 0.00 | 0.00 | 0.00 | 76 | ||
| 20260509020852 | 17 | 0.0 | 1.6 | 0.00 | 0.00 | 0.00 | 77 | ||
| 20260509015828 | 17 | 0.0 | 1.6 | 0.00 | 0.00 | 0.00 | 78 | ||
| 20260509014852 | 17 | 0.0 | 0.0 | 0.00 | 0.00 | 0.00 | 80 | ||
| 20260509013828 | 16 | 0.0 | 1.6 | 0.00 | 0.00 | 0.00 | 80 | ||
| 20260509012852 | 16 | 0.0 | 1.6 | 0.00 | 0.00 | 0.00 | 80 | ||
| 20260509012004 | 17 | 0.0 | 1.6 | 0.00 | 0.00 | 0.00 | 80 | ||
| 20260509010316 | 17 | 0.0 | 1.6 | 0.00 | 0.00 | 0.00 | 80 | ||
| 20260509005340 | 17 | 0.0 | 1.6 | 0.00 | 0.00 | 0.00 | 80 | ||
| 20260509004055 | 17 | 0.0 | 1.6 | 0.00 | 0.00 | 0.00 | 80 | ||
| 20260509003604 | 17 | 0.0 | 1.6 | 0.00 | 0.00 | 0.00 | 81 | ||
| 20260509001028 | 17 | 0.0 | 0.0 | 0.00 | 0.00 | 0.00 | 81 | ||
| 20260508235828 | 17 | 0.0 | 0.0 | 0.00 | 0.00 | 0.00 | 81 | ||
| 20260508234852 | 17 | 0.0 | 0.0 | 0.00 | 0.00 | 0.00 | 81 | ||
| 20260508233653 | 17 | 0.0 | 1.6 | 0.00 | 0.00 | 0.00 | 81 | ||
| 20260508232452 | 17 | 0.0 | 1.6 | 0.00 | 0.00 | 0.00 | 81 | ||
| 20260508231428 | 17 | 0.0 | 0.0 | 0.00 | 0.00 | 0.00 | 81 | ||
| 20260508230452 | 17 | 0.0 | 1.6 | 0.00 | 0.00 | 0.00 | 77 | ||
| 20260508225429 | 17 | 0.0 | 1.6 | 0.00 | 0.00 | 0.00 | 76 | ||
| 20260508224452 | 17 | 0.0 | 1.6 | 0.00 | 0.00 | 0.00 | 76 | ||
| 20260508223428 | 17 | 0.0 | 0.0 | 0.00 | 0.00 | 0.00 | 76 | ||
| 20260508222452 | 17 | 0.0 | 1.6 | 0.00 | 0.00 | 0.00 | 76 | ||
| 20260508221430 | 17 | 0.0 | 0.0 | 0.00 | 0.00 | 0.00 | 76 | ||
| 20260508220454 | -17 | 0.0 | 0.0 | 0.00 | 0.00 | 0.00 | |||
| 20260508215428 | 17 | 0.0 | 0.0 | 0.00 | 0.00 | 0.00 | 76 | ||
| 20260508214540 | 17 | 0.0 | 0.0 | 0.00 | 0.00 | 0.00 | 76 | ||
| 20260508213429 | 17 | 0.0 | 0.0 | 0.00 | 0.00 | 0.00 | 75 | ||
| 20260508212452 | 17 | 0.0 | 0.0 | 0.00 | 0.00 | 0.00 | 75 | ||
| 20260508211429 | 17 | 0.0 | 0.0 | 0.00 | 0.00 | 0.00 | 75 | ||
| 20260508210452 | 17 | 0.0 | 0.0 | 0.00 | 0.00 | 0.00 | 75 | ||
| 20260508205428 | 17 | 0.0 | 0.0 | 0.00 | 0.00 | 0.00 | 74 | ||
| 20260508204453 | 17 | 0.0 | 0.0 | 0.00 | 0.00 | 0.00 | 74 | ||
| 20260508203429 | 17 | 0.0 | 0.0 | 0.00 | 0.00 | 0.00 | 74 | ||
| 20260508202453 | 17 | 0.0 | 1.6 | 0.00 | 0.00 | 0.00 | 74 | ||
| 20260508201429 | 18 | 0.0 | 0.0 | 0.00 | 0.00 | 0.00 | 74 | ||
| 20260508200452 | -17 | 0.0 | 0.0 | 0.00 | 0.00 | 0.00 | |||
| 20260508195253 | 18 | 0.0 | 1.6 | 0.00 | 0.00 | 0.00 | 73 | ||
| 20260508194228 | 18 | 0.0 | 0.0 | 0.00 | 0.00 | 0.00 | 72 | ||
| 20260508193253 | 18 | 0.0 | 0.0 | 0.00 | 0.00 | 0.00 | 72 | ||
| 20260508192310 | 18 | 0.0 | 0.0 | 0.00 | 0.00 | 0.00 | 71 | ||
| 20260508191029 | 18 | 0.0 | 0.0 | 0.00 | 0.03 | 0.00 | 70 | ||
| 20260508185653 | 19 | 0.0 | 1.6 | 0.00 | 0.05 | 0.00 | 68 | ||
| 20260508184709 | 20 | 0.0 | 0.0 | 0.00 | 0.10 | 0.00 | 66 | ||
| 20260508183740 | 20 | 0.0 | 0.0 | 0.00 | 0.15 | 0.00 | 65 | ||
| 20260508182649 | 21 | 0.0 | 0.0 | 0.00 | 0.18 | 0.00 | 64 | ||
| 20260508181653 | 21 | 0.0 | 1.6 | 0.00 | 0.20 | 0.00 | 62 | ||
| 20260508180629 | 22 | 0.0 | 1.6 | 0.00 | 0.28 | 0.00 | 57 | ||
| 20260508175653 | 23 | 0.0 | 1.6 | 0.00 | 0.33 | 0.00 | 55 | ||
| 20260508174629 | 23 | 0.0 | 1.6 | 0.00 | 0.43 | 0.00 | 54 | ||
| 20260508173653 | 23 | 0.0 | 1.6 | 0.00 | 0.43 | 0.00 | 54 | ||
| 20260508172629 | 22 | 0.0 | 1.6 | 0.00 | 0.43 | 0.00 | 54 | ||
| 20260508171652 | 22 | 0.0 | 1.6 | 0.00 | 0.43 | 0.00 | 52 | ||
| 20260508170629 | 23 | 0.0 | 1.6 | 0.00 | 0.43 | 0.00 | 51 | ||
| 20260508165653 | 24 | 0.0 | 1.6 | 0.00 | 0.43 | 0.00 | 50 | ||
| 20260508164629 | 24 | 0.0 | 1.6 | 0.00 | 0.43 | 0.00 | 50 | ||
| 20260508163653 | 24 | 0.0 | 1.6 | 0.00 | 0.43 | 0.00 | 51 | ||
| 20260508162649 | 24 | 0.0 | 1.6 | 0.00 | 0.43 | 0.00 | 48 | ||
| 20260508161653 | 25 | 0.0 | 1.6 | 0.00 | 0.43 | 0.00 | 47 | ||
| 20260508160629 | -17 | 0.0 | 0.0 | 0.00 | 0.43 | 0.00 | |||
| 20260508155653 | 25 | 0.0 | 1.6 | 0.00 | 0.43 | 0.00 | 51 | ||
| 20260508154629 | 24 | 180 | 1.6 | 3.2 | 0.00 | 0.43 | 0.00 | 49 | |
| 20260508153713 | 25 | 0.0 | 1.6 | 0.00 | 0.43 | 0.00 | 50 | ||
| 20260508152650 | 25 | 135 | 0.0 | 3.2 | 0.00 | 0.43 | 0.00 | 51 | |
| 20260508151653 | 24 | 0.0 | 1.6 | 0.00 | 0.43 | 0.00 | 52 | ||
| 20260508150629 | 23 | 0.0 | 1.6 | 0.00 | 0.43 | 0.00 | 55 | ||
| 20260508145653 | 25 | 0.0 | 3.2 | 0.00 | 0.43 | 0.00 | 50 | ||
| 20260508144629 | 25 | 0.0 | 1.6 | 0.00 | 0.43 | 0.00 | 51 | ||
| 20260508143653 | 24 | 0.0 | 3.2 | 0.00 | 0.43 | 0.00 | 50 | ||
| 20260508142709 | 24 | 315 | 0.0 | 3.2 | 0.00 | 0.43 | 0.00 | 46 | |
| 20260508141653 | 24 | 0.0 | 4.8 | 0.00 | 0.43 | 0.00 | 48 | ||
| 20260508140717 | -17 | 0.0 | 0.0 | 0.00 | 0.43 | 0.00 | |||
| 20260508135653 | 24 | 300 | 1.6 | 3.2 | 0.00 | 0.43 | 0.00 | 52 | |
| 20260508134709 | 23 | 0.0 | 1.6 | 0.00 | 0.43 | 0.00 | 52 | ||
| 20260508133653 | 22 | 0.0 | 1.6 | 0.00 | 0.43 | 0.00 | 58 | ||
| 20260508132709 | 21 | 0.0 | 1.6 | 0.00 | 0.43 | 0.00 | 61 | ||
| 20260508131653 | 21 | 0.0 | 1.6 | 0.00 | 0.43 | 0.00 | 60 | ||
| 20260508130630 | 21 | 0.0 | 1.6 | 0.00 | 0.43 | 0.00 | 62 | ||
| 20260508125654 | 21 | 0.0 | 1.6 | 0.00 | 0.43 | 0.00 | 61 | ||
| 20260508124629 | 21 | 0.0 | 1.6 | 0.00 | 0.43 | 0.00 | 65 | ||
| 20260508123653 | 20 | 0.0 | 0.0 | 0.00 | 0.43 | 0.00 | 68 | ||
| 20260508122630 | 19 | 0.0 | 0.0 | 0.00 | 0.43 | 0.00 | 69 | ||
| 20260508121653 | 18 | 0.0 | 0.0 | 0.00 | 0.43 | 0.00 | 68 | ||
| 20260508120629 | -17 | 0.0 | 0.0 | 0.00 | 0.43 | 0.00 | |||
| 20260508115733 | 18 | 0.0 | 0.0 | 0.00 | 0.43 | 0.00 | 67 | ||
| 20260508114650 | 18 | 0.0 | 0.0 | 0.00 | 0.43 | 0.00 | 65 | ||
| 20260508113653 | 18 | 0.0 | 1.6 | 0.00 | 0.43 | 0.00 | 64 | ||
| 20260508112630 | 18 | 0.0 | 0.0 | 0.00 | 0.43 | 0.00 | 64 | ||
| 20260508111653 | 18 | 0.0 | 0.0 | 0.00 | 0.43 | 0.00 | 64 | ||
| 20260508110630 | 18 | 0.0 | 0.0 | 0.00 | 0.43 | 0.00 | 64 | ||
| 20260508105653 | 18 | 0.0 | 0.0 | 0.00 | 0.43 | 0.00 | 69 | ||
| 20260508104630 | 18 | 0.0 | 0.0 | 0.00 | 0.43 | 0.00 | 69 | ||
| 20260508103654 | 18 | 0.0 | 0.0 | 0.00 | 0.43 | 0.00 | 68 | ||
| 20260508102629 | 18 | 0.0 | 0.0 | 0.00 | 0.43 | 0.00 | 66 | ||
| 20260508101653 | 18 | 0.0 | 0.0 | 0.00 | 0.43 | 0.00 | 66 | ||
| 20260508100630 | 18 | 0.0 | 0.0 | 0.00 | 0.43 | 0.00 | 65 | ||
| 20260508095654 | 19 | 0.0 | 0.0 | 0.00 | 0.43 | 0.00 | 66 |